Flag for Turkey Weather past 2 weeks in Konya, Turkey

Now
61 °F

Passing clouds.


Feels Like: 61 °F
Forecast: 52 / 90 °F
Wind: 6 mph from Northwest

Location: Konya Airport

Current Time: Sep 2, 2015 at 7:35:29 AM

Latest Report: Sep 2, 2015 at 6:50 AM


Visibility: N/A

Pressure: 30.07 "Hg (26.59 "Hg at 1041m altitude)

Humidity: 31%

Dew point: 30 °F

Location of KonyaLocation

Historic Weather in Konya — Graph

°F

Konya temperature yesterday

Maximum temperature yesterday: 84 °F (at 3:50 PM)
Minimum temperature yesterday: 59 °F (at 5:50 AM)
Average temperature yesterday: 72 °F

Past Weeks' High & Low Weather Summary

 TemperatureHumidityPressure
High93 °F (Aug 18, 3:50 PM)69% (Aug 23, 6:50 AM)30.21 "Hg (Aug 23, 6:50 AM)
Low57 °F (Aug 26, 5:50 AM)12% (Aug 29, 2:50 PM)29.83 "Hg (Aug 22, 4:50 PM)
Average74 °F39%30.02 "Hg
* Reported Aug 18 5:50 AM — Sep 2 5:50 AM, Konya, Weather by CustomWeather, © 2015

Note: Actual official high and low records may vary slightly from our data, if they occured in-between our weather recording intervals... More about our weather records

Advertising

Konya weather history for previous 24 hours

 ConditionsComfort  
Time TempWeatherWind HumidityBarometerVisibility
5:50 AM
Wed, Sep 2
64 °FClear.10 mph28%30.07 "Hg10 mi
4:50 AM64 °FClear.8 mph26%30.07 "Hg10 mi
3:50 AM64 °FClear.8 mph26%30.07 "Hg10 mi
2:50 AM66 °FClear.10 mph26%30.07 "Hg10 mi
1:50 AM66 °FClear.9 mph26%30.07 "Hg10 mi
11:50 PM
Tue, Sep 1
70 °FClear.10 mph23%30.09 "Hg10 mi
10:50 PM70 °FClear.8 mph21%30.09 "Hg10 mi
9:50 PM68 °FClear.7 mph23%30.09 "Hg10 mi
8:50 PM70 °FClear.7 mph20%30.09 "Hg10 mi
7:50 PM73 °FSunny.8 mph17%30.07 "Hg10 mi
6:50 PM81 °FSunny.10 mph13%30.07 "Hg10 mi
5:50 PM84 °FSunny.13 mph12%30.07 "Hg10 mi
4:50 PM84 °FPassing clouds.12 mph12%30.07 "HgN/A
3:50 PM84 °FPassing clouds.12 mph13%30.09 "HgN/A
2:50 PM82 °FPassing clouds.13 mph13%30.09 "HgN/A
1:50 PM82 °FSunny.13 mph14%30.12 "Hg10 mi
12:50 PM79 °FSunny.17 mph17%30.12 "Hg10 mi
11:50 AM77 °FPassing clouds.15 mph21%30.12 "HgN/A
10:50 AM73 °FSunny.15 mph25%30.15 "Hg10 mi
9:50 AM70 °FSunny.16 mph29%30.15 "Hg10 mi
8:50 AM66 °FSunny.16 mph37%30.15 "Hg10 mi
7:50 AM64 °FSunny.12 mph40%30.15 "Hg10 mi
Weather by CustomWeather, © 2015

See weather overviewHow to use our weather pages